Powrót do katalogu

SMS 1 AKM

AktywnyMEO
NORAD 9998·ROCKET BODY·🇺🇸 United States

Wystrzelony May 17, 1974 z Cape Canaveral Space Force Station

Loading…

Następne Przeloty (najbliższe 24 godziny)

TLE

ŚwieżeSource: Space-Track

Epoka: Sep 13, 2026, 22:35 UTC

1 09998U 74033F   26256.94147272 -.00000174  00000-0  00000-0 0  9992
2 09998   7.4580  69.3858 0271317  27.0418 334.4890  1.16182711 55125

Śledź SMS 1 AKM w czasie rzeczywistym z AllMySat

Download on the App Store